Volver al catálogo

SJ-9B

ActivoCienciaSSO
NORAD 38861·PAYLOAD·🇨🇳 China

Lanzado Oct 14, 2012 desde Taiyuan Satellite Launch Center

Loading…

Próximos Pases (próximas 24 horas)

TLE

ActualizadoSource: Space-Track

Época: Sep 14, 2026, 09:48 UTC

1 38861U 12056B   26257.40840183  .00001322  00000-0  13696-3 0  9996
2 38861  97.6086 238.3257 0013540 279.5740  80.3949 14.91597011753029

Sigue SJ-9B en tiempo real con AllMySat

Download on the App Store